Location: *
(29.1167°S, 130.0000°E)
Time: 16:35:28
(UTC+00:00)

METEOR-M - Pass Details

Date: 21 July 2019
Orbit: 816 x 819 km, 98.4° (Epoch: 23 August)

Event Time Altitude Azimuth Distance (km) Brightness Sun altitude
Rises 08:55:57 0° 169° (S) 3,378 7.0 -3.5°
Reaches altitude 10° 08:58:19 10° 170° (S) 2,439 6.3 -4.0°
Maximum altitude 09:03:44 82° 256° (WSW) 837 4.3 -5.1°
Drops below altitude 10° 09:09:04 10° 343° (NNW) 2,408 7.1 -6.2°
Sets 09:11:24 0° 344° (NNW) 3,333 7.9 -6.7°
